Location: Raitis
(47.2167°N, 11.3833°E)
Time: 07:21:06
(UTC+00:00)

SAR-Lupe-1 - Pass Details

Date: 03 March 2021
Orbit: 482 x 483 km, 98.2° (Epoch: 30 March)

Event Time Altitude Azimuth Distance (km) Brightness Sun altitude
Rises 18:24:14 0° 11° (N) 2,560 7.7 -14.6°
Reaches altitude 10° 18:26:19 10° 8° (N) 1,674 6.8 -15.0°
Maximum altitude 18:29:53 66° 287° (WNW) 532 4.4 -15.6°
Drops below altitude 10° 18:33:25 10° 204° (SSW) 1,660 7.0 -16.2°
Sets 18:35:29 0° 202° (SSW) 2,535 7.9 -16.5°
